GFSFLT2_850_dewp_048.txt.gz
Dewpoint
11 10 6 5 -0 4 -4 -7 -6 -9 -9 -6 -0 -0 -3 -3 -2 -1 -0 0 2 2 2 1 2 2 0 -2 -5 -6 2 2
11 10 6 4 2 2 -0 -5 -7 -8 -8 -4 -2 -2 -1 -0 1 1 2 3 3 4 4 4 4 3 2 -1 -4 -2 0 1
11 10 5 3 2 1 1 -6 -7 -5 -2 -1 1 3 2 5 3 3 3 4 4 4 5 5 4 4 3 1 -1 1 0 0
10 9 7 5 4 3 1 -1 -2 -1 0 3 7 7 7 5 3 3 4 4 5 5 5 5 5 4 3 1 0 -0 -1 -3
8 7 5 4 4 2 -1 -2 -3 -2 2 5 6 5 2 2 2 5 4 5 5 5 5 5 5 4 4 -0 -1 -2 -4 -5
7 8 7 4 3 3 0 1 2 -1 -1 -1 -1 -0 0 4 7 7 5 6 6 6 6 6 5 5 3 -2 -4 -6 -8 -6
6 5 4 4 4 3 4 2 0 3 -2 -2 1 1 -1 1 3 5 6 6 6 6 6 6 6 5 0 -2 -5 -12 -16 -13
4 6 4 3 3 3 3 1 -1 -2 -1 -2 -2 -2 -1 -0 3 6 6 7 6 6 6 6 5 3 -2 -4 -10 -15 -17 -16
7 7 4 4 2 -1 1 -2 -2 0 3 -2 -1 1 3 5 6 6 6 7 7 6 6 6 4 -0 -2 -7 -12 -14 -13 -12
9 8 7 7 3 -1 4 4 1 4 6 5 7 7 7 7 8 8 8 7 7 6 6 5 1 -1 -4 -8 -11 -11 -15 -9
9 9 8 2 0 -3 1 3 3 9 7 8 8 8 7 7 7 7 7 7 7 6 6 3 0 -3 -3 -5 -5 -7 -10 -9
9 9 9 7 4 1 3 7 8 9 8 7 7 7 7 7 7 7 8 7 7 6 5 1 -1 -2 -5 -3 -3 -8 -8 -5
9 10 10 9 9 7 5 7 8 9 9 6 7 8 7 7 6 6 8 8 6 6 3 0 -2 -2 -1 -1 -1 -7 -5 -4
9 9 10 10 10 8 6 6 8 8 9 8 8 8 6 5 5 6 7 7 6 5 2 -0 0 0 -1 -1 -2 -2 -2 -2
9 9 10 11 10 10 8 7 9 9 9 8 8 8 7 6 6 6 7 7 6 4 2 -0 0 1 1 -0 -2 -2 -3 -4
9 9 10 10 10 10 9 6 8 9 10 9 8 9 8 7 6 6 7 7 5 4 1 -0 -0 1 1 1 -2 -3 -4 -4
9 9 9 10 10 10 10 8 7 9 10 9 8 8 9 8 6 7 7 6 5 3 1 -1 -0 3 2 -0 -1 -1 -2 -5
11 10 9 10 10 9 10 10 9 9 10 8 7 8 9 8 7 7 6 5 4 3 1 -1 1 2 3 -2 -2 -4 -6 -5
9 7 9 9 8 6 6 7 9 10 8 8 8 8 9 8 7 6 6 5 4 2 1 -1 1 3 0 -2 -4 -5 -5 -5
11 8 7 8 6 7 8 8 9 9 9 9 8 9 9 8 7 6 6 5 4 2 1 0 2 -2 -4 -7 -4 -3 -3 -4

GFSFLT2_850_dewp_051.txt.gz
Dewpoint
10 10 8 6 -1 -6 -10 -9 -5 -4 -5 -3 1 -1 -0 1 0 1 1 0 1 1 1 2 1 -0 -3 -5 -3 1 2 2
10 9 8 6 6 0 4 5 1 -5 -2 0 -0 -1 -0 -1 -0 -0 1 2 3 3 4 4 2 1 -1 -3 0 1 1 1
11 10 8 6 5 2 4 2 -5 -5 2 2 -0 -1 1 4 1 1 2 3 4 4 4 4 4 2 -1 -1 0 1 -1 -0
10 10 9 3 -1 3 2 4 2 -0 1 1 4 4 8 5 2 3 3 4 4 5 5 5 4 3 2 1 1 -0 -2 -3
10 9 6 4 6 4 3 5 3 2 3 2 3 7 8 4 4 4 4 5 5 5 5 5 5 4 3 -1 0 -2 -4 -4
8 7 5 5 6 5 5 4 2 3 2 3 7 7 6 5 7 7 7 7 5 6 6 6 5 5 1 -2 -4 -5 -7 -5
8 6 7 7 8 6 6 7 3 3 5 8 3 6 8 8 8 8 7 7 7 7 6 6 6 5 1 -2 -4 -7 -9 -5
7 7 7 7 6 5 3 2 2 4 6 2 3 7 8 8 9 8 8 8 7 7 6 6 5 4 -1 -2 -4 -7 -7 -8
7 7 6 6 3 2 2 2 5 7 2 2 8 7 4 7 8 9 8 8 7 7 6 6 5 2 -1 -2 -4 -3 -3 -3
7 6 4 3 4 3 4 7 3 1 6 7 7 8 8 9 9 9 8 8 7 7 6 6 4 2 -1 -2 -3 -3 -3 -4
7 6 5 5 7 6 7 6 4 4 6 9 9 9 8 9 10 9 8 8 7 7 6 6 4 1 -1 -1 -1 -2 -3 -5
8 8 7 7 7 5 7 7 6 6 8 9 9 10 9 8 9 9 7 8 8 7 6 5 3 1 -3 -3 1 -0 -3 -3
9 9 9 9 9 8 5 7 7 7 9 10 9 10 7 7 9 9 7 8 8 7 6 5 2 1 1 1 1 1 -1 -2
9 9 9 9 9 8 6 5 6 6 8 9 9 9 10 8 9 8 6 8 7 7 6 4 3 2 1 1 2 1 -0 -1
9 9 10 10 10 8 7 5 5 7 7 9 9 10 10 8 8 8 7 6 7 7 6 4 3 2 1 2 2 1 1 -1
9 9 8 9 9 9 8 6 5 6 7 8 10 8 7 8 7 7 7 6 7 6 6 5 3 2 2 2 2 2 -0 -1
9 8 8 8 9 9 9 8 6 7 8 9 10 10 8 8 9 8 7 6 7 6 5 5 3 2 2 2 2 1 1 1
8 9 8 8 9 10 10 9 8 6 8 9 10 10 9 8 9 8 7 7 7 6 5 4 2 2 1 2 2 1 -0 -2
9 9 8 8 9 10 10 10 10 9 8 10 10 9 9 7 8 8 8 7 7 5 5 4 3 1 1 2 0 -0 -3 -3
10 10 10 8 9 10 11 11 11 10 10 10 10 10 10 8 8 9 8 8 7 5 4 4 2 0 1 1 0 -1 -1 -1

GFSFLT2_850_dewp_054.txt.gz
Dewpoint
12 13 13 13 12 8 -1 -9 -10 -6 -5 -1 2 3 3 3 2 1 1 0 0 2 2 -1 -4 -6 -5 0 2 2 2 3
11 10 10 10 10 6 3 4 -1 -3 -2 3 2 2 3 2 2 1 1 2 2 3 3 1 -1 -4 -2 1 1 1 1 1
11 8 9 9 8 4 2 4 -0 -1 3 3 3 3 3 2 2 1 2 3 4 4 4 3 1 -3 -2 0 0 -0 -1 -0
10 9 9 9 8 6 3 6 5 4 4 3 2 3 2 1 1 2 4 4 4 5 4 4 4 3 1 -0 -1 -2 -3 -3
10 9 9 8 6 3 5 4 4 4 4 2 5 3 4 2 3 3 4 4 4 5 5 5 5 4 -1 -3 -2 -3 -4 -4
10 9 8 7 6 4 2 4 5 6 6 5 5 1 7 3 3 4 4 5 5 6 6 6 5 4 -2 -2 -4 -5 -5 -4
9 9 7 5 3 6 5 5 4 5 5 3 3 7 6 4 4 4 5 7 6 7 7 6 6 5 -1 -2 -3 -5 -5 -3
8 7 5 6 6 5 6 6 6 3 3 5 6 7 7 8 8 8 7 7 7 7 6 6 5 5 1 -2 -4 -5 -3 -4
7 6 6 7 6 7 7 5 5 3 2 5 6 7 7 8 8 8 8 8 8 7 7 6 5 3 1 -2 -2 -1 -0 -3
7 7 8 8 7 7 7 4 3 2 3 2 4 7 8 7 7 9 8 8 8 7 7 6 5 3 0 -1 -2 -1 -0 -2
6 7 7 6 5 4 3 3 2 3 -0 3 -1 2 8 7 9 9 8 8 8 7 7 6 5 3 1 -0 -1 -1 -2 -3
4 4 4 3 3 3 3 1 2 -1 -0 5 7 6 6 7 8 9 8 8 8 7 7 6 6 4 1 -2 -1 -0 0 -2
5 4 4 6 6 3 6 7 7 4 5 5 9 8 6 6 7 10 8 8 8 7 7 6 6 3 1 -2 0 1 1 0
7 5 4 5 6 6 4 7 7 4 6 9 8 8 7 7 7 8 7 7 8 8 7 7 6 4 3 1 2 2 2 1
8 8 7 7 7 8 7 6 5 6 7 8 7 9 8 8 7 9 8 7 8 7 7 6 6 3 3 2 2 2 2 1
9 9 9 9 7 9 9 7 5 6 6 7 7 8 8 8 9 9 9 7 7 7 6 6 5 4 3 3 1 2 1 1
8 9 9 8 9 7 9 7 6 5 6 6 8 9 8 8 9 9 8 8 7 7 7 6 6 5 4 3 2 2 2 1
8 8 9 9 10 8 9 9 7 6 6 7 8 8 9 8 8 9 8 8 8 7 7 6 6 5 4 3 2 2 2 1
8 8 9 9 8 9 9 9 10 8 7 7 8 8 8 8 9 8 7 8 8 8 7 6 5 5 3 4 3 2 1 0
8 8 9 9 8 8 9 8 9 9 9 7 9 9 9 9 8 8 7 7 8 8 7 6 6 5 4 4 2 1 1 2

GFSFLT2_850_dewp_057.txt.gz
Dewpoint
12 12 13 13 13 12 10 -2 -8 -10 -6 2 6 7 5 3 -1 0 -1 -1 1 -1 -5 -7 -5 1 2 2 2 2 1 -1
13 13 12 13 11 9 5 3 -7 -7 -4 3 6 6 4 3 1 0 0 2 3 1 -3 -6 -4 -1 1 1 1 2 1 0
12 13 12 11 10 8 3 -4 -3 -2 2 5 6 5 5 4 2 1 2 3 3 3 -0 -3 -3 -1 0 0 -1 -1 -1 -3
12 11 12 11 9 7 1 -4 2 3 5 5 6 5 4 3 1 2 3 4 4 4 4 3 3 -1 -2 -1 -2 -3 -4 -4
11 11 10 10 8 7 2 -3 0 6 7 6 4 1 3 2 2 3 4 4 5 5 5 4 4 3 -3 -3 -3 -4 -5 -5
11 10 10 9 8 4 3 1 5 5 4 3 -0 1 1 2 3 4 4 4 5 5 5 5 5 4 -3 -2 -4 -6 -5 -5
10 10 9 8 5 4 4 6 6 5 5 3 1 2 3 2 3 4 5 5 5 6 6 6 6 5 -2 -1 -4 -5 -4 -4
10 9 9 8 6 5 6 8 7 6 2 4 3 2 5 3 4 5 5 6 7 7 7 6 5 5 3 -2 -3 -4 -2 -3
9 8 8 6 6 5 4 3 4 4 6 3 2 6 6 7 8 8 7 7 8 7 7 6 5 5 4 2 -2 -2 -2 -0
8 7 6 5 4 4 4 3 5 3 4 5 5 6 7 8 8 8 8 8 8 8 7 7 6 6 3 1 -1 -2 -1 -1
7 6 6 5 6 5 5 5 6 6 4 1 3 5 4 8 7 7 8 8 8 8 7 7 6 5 3 1 1 -2 -1 -0
6 6 7 6 7 5 5 6 4 2 1 2 2 0 4 5 6 7 9 8 8 8 7 7 6 5 4 2 0 -2 -3 -0
7 8 8 7 7 6 3 4 2 2 2 1 -1 -0 1 2 4 7 9 8 7 7 6 7 7 6 4 2 -1 -2 0 1
5 5 5 6 5 4 4 2 3 3 2 -1 4 6 7 6 4 7 7 7 8 7 6 7 6 6 4 2 0 1 1 1
3 3 3 3 2 2 3 4 2 3 0 3 7 6 7 7 6 7 7 7 8 7 7 6 6 6 6 5 2 2 2 2
3 3 4 3 3 2 2 2 6 7 5 2 5 7 7 6 7 7 7 7 8 8 7 7 7 7 6 4 3 2 2 1
6 5 4 4 5 6 6 7 6 4 5 6 6 7 8 7 8 8 7 8 8 8 7 7 7 7 5 4 3 3 2 2
9 8 7 7 7 6 8 10 8 7 5 6 6 6 8 8 8 8 7 8 9 8 8 8 7 7 6 5 4 4 3 3
9 9 8 8 8 8 7 7 9 8 6 5 5 6 7 8 8 8 8 8 8 9 9 8 8 7 7 6 5 4 4 4
9 8 8 9 9 8 9 7 7 9 8 7 6 7 7 7 8 8 7 7 7 9 9 8 8 7 6 5 5 5 5 4

GFSFLT2_850_dewp_063.txt.gz
Dewpoint
13 12 12 12 11 11 10 8 4 7 3 1 -2 -3 -3 -3 -5 -5 2 5 3 3 4 5 5 5 1 0 -1 -4 -9 -9
12 13 12 8 10 10 8 8 4 9 5 2 -0 -1 -2 -3 -6 -7 -3 4 2 2 2 3 2 2 1 0 -2 -4 -5 -8
12 12 11 10 11 9 7 4 7 8 8 2 1 0 -1 -4 -3 -5 -7 1 2 2 2 2 1 1 -0 -2 -4 -4 -5 -6
12 12 11 11 10 9 9 7 7 7 8 5 -0 1 -1 -0 1 -1 -4 -6 -4 1 1 1 1 -1 -2 -3 -4 -4 -5 -4
12 12 12 11 10 8 9 8 7 8 6 6 1 1 -0 2 3 2 -1 -3 -5 -3 -1 -1 -2 -2 -2 -3 -4 -4 -4 -3
12 12 11 11 11 10 8 5 3 4 5 7 2 1 1 3 3 3 3 2 1 0 -2 -2 -1 -3 -3 -3 -4 -4 -3 -2
11 11 11 11 11 10 5 -0 3 6 7 5 4 1 2 3 3 3 4 3 3 4 4 4 4 3 -3 -2 -4 -3 -3 -2
11 10 10 10 8 5 1 5 6 7 6 6 4 1 2 3 3 4 4 4 4 5 5 5 5 5 0 -2 -3 -3 -2 -1
10 10 10 9 8 5 4 4 4 5 6 6 4 2 1 3 3 3 4 4 5 5 6 6 6 5 4 -0 -2 -3 -2 -1
10 10 10 9 9 8 4 7 7 6 4 5 3 1 0 1 -0 1 2 4 5 6 7 7 7 6 5 4 3 -1 -2 -2
10 10 10 9 9 8 9 9 6 4 7 2 1 1 1 1 0 2 3 5 7 7 7 7 7 7 6 6 4 2 2 1
9 9 9 9 8 8 7 5 7 8 5 3 3 2 2 2 1 4 7 7 7 7 8 8 7 7 7 6 5 4 3 2
8 9 9 8 7 6 7 7 7 7 5 2 3 2 5 5 4 6 7 6 7 7 8 8 8 7 7 6 5 5 4 4
7 8 8 7 7 5 5 8 7 6 3 3 2 2 4 7 6 5 6 5 6 8 8 8 8 8 8 7 6 4 3 3
8 8 7 6 6 7 8 7 5 4 3 2 2 2 6 6 6 6 5 2 3 4 6 8 8 8 8 7 5 5 4 4
7 7 6 5 5 5 7 7 5 4 3 2 3 4 3 3 2 -0 2 6 5 2 5 7 7 8 8 7 7 6 4 4
5 6 5 4 4 4 4 5 4 3 3 4 4 3 3 3 -1 -1 2 2 6 8 7 7 7 7 7 8 7 7 6 6
2 5 5 5 5 5 5 6 5 4 4 3 2 2 3 3 1 -1 1 4 6 7 7 7 6 7 7 8 8 8 7 7
1 3 4 5 5 5 5 5 4 4 4 4 3 1 1 1 0 -2 4 6 7 8 7 8 8 8 8 8 8 8 8 8
0 0 1 2 2 2 3 3 3 3 2 1 1 0 0 -1 -1 -1 0 4 7 7 8 8 6 8 9 8 9 8 8 8

GFSFLT2_850_dewp_069.txt.gz
Dewpoint
12 10 9 9 9 9 8 9 9 3 1 5 -2 5 6 8 4 3 5 4 3 3 -3 -3 -5 -8 -9 -9 -9 -10 -11 -9
11 11 10 10 10 9 9 10 10 7 7 5 1 6 7 5 3 4 4 5 4 3 1 -0 -3 -5 -6 -7 -7 -8 -9 -9
10 11 10 11 11 11 11 11 9 6 7 6 1 7 7 2 3 3 4 4 5 4 2 -0 -2 -4 -5 -6 -6 -6 -6 -5
10 9 11 10 11 11 10 8 7 6 6 7 0 2 1 1 4 3 3 4 6 4 1 -1 -3 -4 -5 -5 -5 -6 -6 -6
11 10 9 9 9 8 9 8 8 5 7 4 1 -3 4 4 4 3 3 5 6 3 1 -1 -3 -4 -4 -4 -4 -4 -4 -3
11 11 9 10 11 10 10 10 8 8 6 2 -1 -0 3 3 4 2 2 2 2 1 0 -1 -2 -3 -4 -4 -3 -2 -2 -2
11 11 10 10 11 10 10 8 6 5 6 1 -2 -3 -2 2 3 2 2 1 1 0 -2 -2 -3 -3 -3 -4 -3 -2 -2 -1
11 11 11 11 10 10 10 9 6 4 5 0 -1 -2 -3 -5 -2 1 0 -0 -1 -3 -2 -2 -3 -3 -2 -3 -3 -3 -2 -1
10 10 11 11 10 9 9 7 8 6 5 2 -1 -0 -2 -5 -5 -3 -2 -2 -2 0 4 5 4 0 -2 -2 -3 -3 -2 -1
10 10 10 10 10 8 9 9 8 7 5 3 1 1 0 -0 -3 -3 -1 3 4 5 5 5 5 4 3 2 -2 -2 -3 -2
10 9 10 10 10 10 9 9 9 8 4 4 1 0 2 2 0 2 4 4 5 5 5 6 6 5 5 5 5 3 -1 -2
9 10 10 10 10 10 10 9 8 8 8 7 3 1 3 4 4 4 4 4 5 5 5 6 6 7 7 7 6 6 4 3
9 10 10 9 10 10 10 9 7 7 6 6 5 2 2 4 4 4 4 4 4 4 5 7 7 7 7 7 7 7 6 5
8 8 9 9 9 8 8 7 5 6 6 9 8 3 2 3 4 4 3 3 3 1 4 5 7 7 8 8 7 7 7 7
7 8 8 9 9 9 8 7 7 9 7 8 8 5 3 3 3 4 3 3 3 3 4 4 6 7 8 8 7 7 6 6
7 7 8 9 9 9 8 8 8 7 6 8 9 7 4 3 4 4 4 4 3 4 5 4 4 5 7 6 7 8 7 7
5 7 7 7 8 8 8 8 7 8 8 8 6 5 5 5 4 4 6 4 5 5 5 2 5 6 6 6 7 7 8 7
3 5 6 7 7 8 7 8 8 8 7 5 5 5 5 6 4 4 5 3 6 4 2 2 3 5 6 7 8 8 8 8
1 1 4 4 6 6 6 7 7 6 7 5 5 5 5 4 4 3 3 5 5 1 1 1 1 2 5 6 7 8 8 8
2 -0 2 4 4 4 5 6 6 7 7 6 5 6 4 3 3 3 3 3 3 3 3 3 2 2 1 4 6 5 6 8

GFSFLT2_850_dewp_072.txt.gz
Dewpoint
12 11 11 9 10 11 10 9 8 10 8 6 6 0 1 8 6 9 9 5 -8 -10 -11 -12 -12 -11 -11 -9 -4 6 6 6
13 11 11 10 8 9 9 10 11 9 7 4 2 3 6 8 6 7 8 2 -2 -7 -9 -9 -9 -9 -9 -9 -7 5 6 6
13 12 11 10 10 10 10 9 9 9 7 5 -1 4 9 6 2 7 5 3 -2 -2 -4 -6 -6 -7 -7 -6 4 5 6 6
11 11 10 9 8 10 11 10 11 10 9 6 7 9 8 8 2 5 5 4 1 0 -2 -4 -2 -5 -5 1 5 6 6 6
10 9 9 9 9 10 10 11 11 9 8 8 6 9 8 4 4 6 6 5 3 1 -2 3 5 5 4 5 4 6 6 6
11 10 10 9 10 10 10 10 9 8 7 6 3 10 7 4 7 8 8 8 7 5 6 6 5 5 4 4 6 6 6 6
11 11 11 9 8 9 8 8 9 9 8 8 8 8 4 4 8 9 9 9 8 7 6 4 0 -1 4 3 6 6 7 6
11 11 11 9 10 10 10 9 9 8 8 8 4 4 2 3 3 8 8 9 8 6 5 4 2 3 3 5 5 5 6 7
11 10 9 10 11 10 10 9 8 8 6 6 1 -1 -1 1 3 3 6 6 6 5 5 3 3 3 2 -3 -1 -1 4 4
10 11 10 11 11 10 10 8 9 7 7 5 0 -1 -1 -0 3 3 5 4 4 3 3 1 2 2 -1 -1 1 -0 2 1
10 10 10 10 11 10 10 9 7 7 7 3 -3 -0 -1 -1 2 5 -2 -1 2 4 4 4 4 2 3 1 -1 1 -1 -0
10 8 10 10 10 10 10 9 6 5 6 4 -3 -0 -1 -4 1 -1 -2 4 4 5 5 5 5 5 3 4 5 5 3 1
9 9 9 10 10 9 9 9 8 6 6 5 -1 1 1 -1 3 -3 1 5 6 5 6 6 6 6 6 6 6 6 6 6
9 9 9 10 10 10 10 9 9 9 6 5 1 2 1 1 -0 -0 3 5 7 4 6 6 6 6 7 7 7 7 6 7
8 9 9 10 9 10 9 9 9 9 9 6 4 6 3 2 3 4 4 5 3 4 5 6 5 5 6 7 8 7 7 7
7 8 9 9 9 9 9 9 9 8 8 8 8 7 7 2 4 5 5 4 4 4 3 4 5 6 5 5 7 8 7 7
4 7 8 8 9 9 9 8 8 7 5 6 7 7 7 4 4 5 5 4 4 5 4 4 4 5 6 6 6 6 7 8
3 6 8 8 8 9 9 9 9 8 6 6 7 6 6 5 5 5 5 4 5 6 5 5 3 5 5 7 8 8 8 8
6 8 8 8 8 8 8 8 8 8 8 7 7 8 7 5 5 5 5 4 5 4 5 6 5 5 3 7 8 8 9 7
2 7 8 8 8 8 8 8 8 8 8 7 6 7 7 5 4 4 4 5 4 5 7 4 5 2 3 4 6 7 7 4

GFSFLT2_850_dewp_075.txt.gz
Dewpoint
13 12 12 10 9 8 11 13 12 9 7 6 6 6 9 5 9 2 -3 -5 -8 -8 -10 -10 -12 -8 -3 5 6 6 6 6
12 13 13 12 10 11 12 11 13 11 8 7 7 7 10 2 7 8 2 -3 -10 -12 -13 -11 -12 -9 -5 4 6 6 6 6
13 12 12 12 12 11 11 11 11 11 10 8 7 8 9 7 9 9 6 -8 -11 -11 -11 -10 -9 -9 -3 4 6 6 6 6
12 12 11 11 12 10 10 10 11 12 10 8 9 9 9 9 8 10 5 -3 -7 -9 -9 -8 -6 -6 2 5 6 6 6 7
12 12 12 12 12 10 10 9 10 11 9 7 9 8 9 9 8 10 3 -3 -2 -5 -5 -0 5 4 4 6 6 6 6 7
11 11 9 9 10 9 9 10 8 11 9 8 10 9 8 6 8 8 3 0 -0 -3 3 6 6 5 6 7 6 5 6 7
11 11 10 10 9 8 11 10 11 11 10 9 9 9 8 8 8 8 6 7 5 4 6 6 6 6 6 7 6 6 6 7
11 11 11 11 8 8 10 10 10 10 9 9 9 7 8 8 8 8 8 8 7 6 6 6 5 5 6 6 6 7 6 7
11 11 10 11 9 9 9 9 8 9 9 9 6 5 6 8 8 8 7 8 7 6 6 5 4 4 5 6 6 7 7 7
10 10 10 10 10 8 9 9 9 9 9 8 7 9 7 8 9 8 8 8 7 6 5 4 4 4 4 5 5 6 7 7
9 9 10 11 10 10 10 10 9 9 9 6 4 4 5 5 6 7 7 7 6 5 4 4 3 3 4 3 4 4 6 6
9 10 10 10 10 10 10 9 9 8 8 6 3 6 4 3 3 5 6 6 5 5 5 5 4 3 2 2 3 3 4 4
9 10 9 10 10 10 10 9 9 8 5 4 5 6 3 3 4 1 2 4 4 6 6 6 6 5 4 5 5 5 5 4
9 10 9 10 10 9 10 9 9 9 5 5 3 -1 -0 4 5 6 4 6 7 7 8 7 7 6 5 6 7 6 6 6
10 9 9 9 10 10 10 9 9 8 7 6 -0 -0 1 2 5 2 0 5 5 6 5 6 8 7 7 7 6 7 7 7
9 9 9 10 10 10 9 9 9 8 6 6 3 -1 0 3 2 1 -2 0 5 5 7 4 5 5 6 7 6 8 6 7
9 10 9 10 10 10 10 10 9 9 9 5 6 0 1 2 5 3 -0 2 4 5 6 4 4 6 5 5 8 6 6 5
9 8 9 9 10 9 9 10 9 9 9 9 6 2 3 6 5 3 2 4 5 5 5 5 5 6 6 4 4 6 8 8
8 9 9 9 9 9 9 9 9 9 9 8 9 6 4 4 6 6 3 5 5 5 5 5 5 4 5 5 5 7 7 7
8 8 8 9 9 9 9 9 9 9 9 8 8 7 7 6 6 6 4 4 5 5 5 6 5 5 6 6 6 5 5 7

GFSFLT2_850_dewp_081.txt.gz
Dewpoint
12 12 11 11 10 10 7 9 8 7 8 8 10 8 8 6 10 10 7 3 2 4 2 2 7 8 7 7 7 7 6 3
11 12 12 12 11 10 9 8 7 8 9 8 11 8 7 6 9 10 7 -1 3 2 0 -3 6 7 6 6 6 6 6 -2
10 13 13 13 12 10 10 8 9 9 9 9 10 10 11 11 10 9 5 -4 -3 -1 -2 -4 7 6 6 7 7 6 6 -8
11 12 13 13 13 11 10 10 9 9 9 11 10 10 10 11 11 8 3 -5 -6 -7 -7 -0 6 6 6 7 6 6 3 2
11 11 13 12 13 12 11 11 9 7 10 11 10 9 12 11 8 3 -0 -2 -8 -10 -9 -2 5 6 6 7 6 6 6 5
11 11 12 12 12 12 11 11 9 8 9 11 10 10 11 8 6 -1 -6 -7 -10 -11 -12 -4 5 6 6 7 7 6 6 5
11 11 12 12 12 12 11 11 10 9 8 11 9 10 8 6 6 -4 -9 -11 -11 -11 -9 -1 5 6 6 7 7 6 6 3
11 11 11 10 10 10 10 11 10 10 8 9 10 8 8 6 9 -5 -9 -10 -10 -9 -9 2 6 6 5 6 6 6 6 1
9 11 11 11 9 8 7 10 11 10 10 10 9 9 9 6 9 -2 -7 -8 -7 -3 -1 1 4 6 5 7 6 6 6 2
10 11 11 10 9 8 8 11 10 11 10 10 9 9 8 8 9 3 -4 -5 5 4 5 6 6 5 6 7 7 6 5 5
8 11 11 11 10 8 8 8 10 10 10 10 9 9 9 7 8 2 -1 1 6 7 6 6 5 5 6 7 7 7 6 5
8 7 11 10 10 10 9 9 9 10 10 9 9 9 8 5 7 4 3 1 6 7 6 4 5 5 6 6 6 7 7 7
8 5 10 11 9 10 10 9 9 10 10 10 9 8 7 7 6 5 7 6 6 7 5 4 5 5 5 5 6 6 6 7
9 6 7 10 10 10 10 10 9 9 9 9 8 7 7 7 6 8 7 8 7 6 4 4 4 4 4 4 4 4 5 6
8 5 6 9 10 10 10 10 9 9 9 9 8 6 6 4 4 5 8 8 7 6 4 4 4 3 3 3 4 3 3 4
8 5 7 9 10 9 9 10 9 9 8 7 6 5 4 4 7 6 8 8 5 6 5 3 1 3 3 4 4 5 7 6
8 6 7 9 9 10 9 9 10 9 9 8 4 6 4 4 7 6 7 7 7 6 5 1 1 4 4 4 4 6 7 6
8 7 8 10 10 9 10 9 9 9 9 9 8 6 5 6 6 6 4 5 5 3 3 2 2 0 5 5 4 6 6 6
8 8 7 10 9 10 9 9 9 8 8 8 8 4 3 5 6 5 6 6 5 4 4 4 1 3 6 6 6 6 6 5
9 8 6 5 10 10 9 9 9 9 8 8 8 5 2 2 5 6 6 6 4 2 3 3 4 6 6 7 5 4 4 4

GFSFLT2_850_dewp_084.txt.gz
Dewpoint
10 13 13 13 12 12 11 11 10 9 9 7 8 10 11 9 10 11 11 10 6 8 7 9 9 10 9 8 8 7 7 6
9 12 14 13 13 12 11 9 9 8 8 8 7 7 10 10 9 11 10 10 7 6 8 9 10 10 8 8 7 6 4 -0
8 11 13 13 13 12 11 9 9 8 8 9 9 8 10 10 10 9 8 7 7 5 8 9 8 7 7 7 6 6 3 -8
8 10 12 12 13 12 11 10 9 9 8 9 9 9 11 9 7 5 7 4 6 4 7 8 8 6 7 7 6 6 -4 -12
9 9 13 12 12 12 11 10 10 8 9 10 10 10 11 8 9 10 4 -0 5 4 3 8 6 7 7 7 6 5 -0 -9
7 10 11 12 12 12 12 11 11 9 8 9 8 11 10 10 11 9 -1 -0 -0 0 2 7 7 7 7 6 5 6 6 4
8 10 11 12 12 12 11 11 10 9 8 10 10 11 9 11 10 4 -2 -3 -5 -5 5 6 6 6 7 6 6 6 6 5
9 10 10 12 11 11 11 11 10 9 8 9 11 10 8 10 7 -0 -4 -6 -10 -6 6 6 6 6 7 7 6 6 6 5
9 9 9 11 10 11 12 11 11 9 9 10 11 10 9 7 5 -3 -7 -10 -10 -8 3 6 6 6 6 6 6 6 6 3
9 9 9 9 10 9 9 9 11 11 11 10 11 9 8 6 6 -5 -9 -10 -9 -8 -2 6 6 6 6 6 6 6 6 4
8 9 9 10 9 8 8 9 10 11 10 10 10 10 7 8 7 -6 -9 -9 -7 -8 4 3 4 4 6 6 6 6 5 5
8 8 10 10 9 8 8 8 9 10 10 11 11 10 8 8 8 -2 -8 -7 -1 1 -1 1 -2 1 7 7 7 6 6 6
7 7 10 10 9 10 9 9 9 10 11 11 11 9 9 8 9 -1 -6 1 5 3 4 5 5 4 7 7 7 7 7 7
7 8 7 9 10 9 9 8 9 10 10 10 10 10 9 9 9 1 -2 6 6 4 6 6 5 5 6 6 7 7 7 7
7 7 5 10 9 9 9 9 10 10 9 10 10 10 10 8 7 6 3 3 6 7 6 4 5 6 5 5 5 6 6 7
7 7 4 7 9 9 10 10 10 9 9 9 10 9 9 8 8 5 4 6 5 7 6 4 4 5 5 4 4 3 4 4
7 7 4 5 10 9 9 10 9 8 9 10 9 8 8 8 9 8 7 7 4 7 6 4 4 4 4 4 3 3 3 3
7 7 4 5 9 9 9 9 8 8 8 9 8 8 8 8 7 8 6 6 7 8 7 5 4 4 4 2 3 3 4 6
8 7 4 4 8 9 9 9 9 8 8 8 8 8 7 6 5 5 5 6 7 7 6 5 5 5 2 3 2 3 3 6
8 7 5 3 4 9 9 9 9 8 8 8 8 7 6 4 4 6 7 7 7 7 7 6 6 4 1 4 4 4 4 5